FOXAE LFEB-LFRS

Flight info

Callsign FOXAE
Flight time 0h 39m
Altitude 13000
Route REN UN862 GODAN
Aircraft B58T/L-SDFGRY/C

Departure

Time 2026-04-21 15:02
Airport Dinan-Trélivan Airfield (LFEB)

Arrival

Time 2026-04-21 15:41
Airport Nantes Atlantique Airport (LFRS)
Time Latitude Longitude Altitude Speed Heading
2026-04-21 14:49 48.44517 -2.10063 415 ft 0 kts 300°
2026-04-21 14:58 48.44462 -2.10155 420 ft 17 kts 218°
2026-04-21 14:58 48.44356 -2.10251 387 ft 13 kts 219°
2026-04-21 14:59 48.44302 -2.10460 393 ft 18 kts 250°
2026-04-21 14:59 48.44242 -2.10694 393 ft 21 kts 245°
2026-04-21 14:59 48.44231 -2.10780 394 ft 8 kts 66°
2026-04-21 14:59 48.44233 -2.10738 394 ft 0 kts 68°
2026-04-21 15:01 48.44251 -2.10670 393 ft 39 kts 70°
2026-04-21 15:01 48.44422 -2.09936 488 ft 94 kts 70°
2026-04-21 15:01 48.44682 -2.08978 852 ft 104 kts 70°
2026-04-21 15:02 48.44819 -2.07877 1179 ft 119 kts 96°
2026-04-21 15:02 48.44372 -2.06751 1583 ft 139 kts 135°
2026-04-21 15:02 48.43400 -2.06334 1950 ft 156 kts 173°
2026-04-21 15:02 48.42300 -2.06447 2308 ft 158 kts 171°
2026-04-21 15:03 48.41216 -2.06280 2699 ft 155 kts 159°
2026-04-21 15:03 48.40189 -2.05799 3044 ft 154 kts 150°
2026-04-21 15:03 48.39226 -2.05130 3404 ft 152 kts 145°
2026-04-21 15:03 48.38298 -2.04358 3752 ft 152 kts 141°
2026-04-21 15:04 48.37397 -2.03538 4099 ft 151 kts 141°
2026-04-21 15:04 48.36510 -2.02703 4451 ft 150 kts 139°
2026-04-21 15:04 48.35636 -2.01856 4822 ft 149 kts 140°
2026-04-21 15:04 48.34779 -2.01031 5162 ft 146 kts 140°
2026-04-21 15:05 48.33941 -2.00226 5505 ft 140 kts 140°
2026-04-21 15:05 48.32325 -1.98657 6230 ft 137 kts 142°
2026-04-21 15:05 48.31517 -1.97888 6588 ft 137 kts 140°
2026-04-21 15:06 48.30718 -1.97104 6938 ft 138 kts 142°
2026-04-21 15:06 48.29911 -1.96312 7281 ft 139 kts 141°
2026-04-21 15:06 48.29097 -1.95526 7617 ft 139 kts 142°
2026-04-21 15:06 48.28283 -1.94735 7967 ft 140 kts 142°
2026-04-21 15:07 48.27464 -1.93940 8314 ft 140 kts 143°
2026-04-21 15:07 48.26635 -1.93147 8663 ft 142 kts 144°
2026-04-21 15:07 48.25801 -1.92342 9044 ft 144 kts 146°
2026-04-21 15:07 48.24954 -1.91522 9411 ft 146 kts 146°
2026-04-21 15:08 48.24107 -1.90706 9762 ft 147 kts 146°
2026-04-21 15:08 48.23241 -1.89868 10123 ft 149 kts 147°
2026-04-21 15:08 48.22365 -1.89024 10463 ft 150 kts 147°
2026-04-21 15:08 48.21481 -1.88170 10803 ft 152 kts 147°
2026-04-21 15:09 48.20588 -1.87308 11158 ft 153 kts 148°
2026-04-21 15:09 48.19685 -1.86439 11504 ft 155 kts 149°
2026-04-21 15:09 48.18771 -1.85559 11852 ft 157 kts 150°
2026-04-21 15:09 48.17849 -1.84670 12207 ft 158 kts 149°
2026-04-21 15:10 48.16919 -1.83772 12562 ft 160 kts 150°
2026-04-21 15:10 48.15976 -1.82866 12927 ft 162 kts 151°
2026-04-21 15:10 48.14981 -1.81914 13041 ft 179 kts 150°
2026-04-21 15:10 48.13877 -1.80860 13062 ft 196 kts 149°
2026-04-21 15:11 48.12693 -1.79724 13060 ft 208 kts 150°
2026-04-21 15:11 48.11443 -1.78525 13058 ft 217 kts 150°
2026-04-21 15:11 48.10159 -1.77289 13053 ft 220 kts 149°
2026-04-21 15:11 48.08876 -1.76053 13055 ft 219 kts 149°
2026-04-21 15:12 48.07581 -1.74896 13053 ft 215 kts 160°
2026-04-21 15:12 48.06136 -1.74637 13052 ft 208 kts 193°
2026-04-21 15:12 48.04793 -1.75264 13059 ft 204 kts 204°
2026-04-21 15:12 48.03453 -1.75961 13059 ft 204 kts 203°
2026-04-21 15:13 48.02110 -1.76646 13061 ft 203 kts 201°
2026-04-21 15:13 48.00773 -1.77337 13059 ft 203 kts 202°
2026-04-21 15:13 47.99435 -1.78020 13056 ft 202 kts 202°
2026-04-21 15:13 47.98109 -1.78693 13059 ft 200 kts 205°
2026-04-21 15:14 47.96790 -1.79369 13055 ft 200 kts 205°
2026-04-21 15:14 47.95476 -1.80063 13057 ft 200 kts 203°
2026-04-21 15:14 47.94155 -1.80746 13057 ft 201 kts 206°
2026-04-21 15:14 47.92828 -1.81422 13056 ft 202 kts 205°
2026-04-21 15:15 47.91499 -1.82097 13054 ft 202 kts 205°
2026-04-21 15:15 47.90169 -1.82771 13052 ft 202 kts 202°
2026-04-21 15:15 47.88838 -1.83431 13049 ft 201 kts 205°
2026-04-21 15:15 47.87515 -1.84118 13049 ft 201 kts 204°
2026-04-21 15:16 47.86188 -1.84801 13045 ft 202 kts 203°
2026-04-21 15:16 47.84862 -1.85483 13043 ft 202 kts 205°
2026-04-21 15:16 47.83549 -1.86147 13036 ft 201 kts 205°
2026-04-21 15:16 47.82229 -1.86829 13036 ft 201 kts 205°
2026-04-21 15:17 47.80908 -1.87505 13025 ft 201 kts 205°
2026-04-21 15:17 47.79585 -1.88178 13024 ft 201 kts 206°
2026-04-21 15:17 47.78262 -1.88856 13013 ft 200 kts 204°
2026-04-21 15:17 47.76943 -1.89529 13019 ft 200 kts 207°
2026-04-21 15:18 47.75631 -1.90206 13018 ft 199 kts 207°
2026-04-21 15:18 47.74320 -1.90879 13017 ft 200 kts 204°
2026-04-21 15:18 47.73004 -1.91546 13018 ft 200 kts 204°
2026-04-21 15:18 47.71683 -1.92205 13018 ft 200 kts 204°
2026-04-21 15:19 47.70364 -1.92857 13017 ft 199 kts 206°
2026-04-21 15:19 47.69073 -1.93524 13011 ft 199 kts 204°
2026-04-21 15:19 47.67765 -1.94195 13010 ft 199 kts 206°
2026-04-21 15:19 47.66453 -1.94860 13009 ft 199 kts 205°
2026-04-21 15:20 47.65138 -1.95509 13011 ft 201 kts 202°
2026-04-21 15:20 47.63724 -1.95546 13013 ft 210 kts 172°
2026-04-21 15:20 47.62352 -1.94688 13011 ft 216 kts 159°
2026-04-21 15:20 47.61001 -1.93688 13003 ft 217 kts 157°
2026-04-21 15:21 47.59655 -1.92699 12999 ft 216 kts 157°
2026-04-21 15:21 47.58311 -1.91721 12998 ft 215 kts 157°
2026-04-21 15:21 47.56961 -1.90736 12824 ft 221 kts 158°
2026-04-21 15:21 47.55549 -1.89715 12553 ft 229 kts 158°
2026-04-21 15:22 47.54093 -1.88692 12275 ft 232 kts 160°
2026-04-21 15:22 47.52613 -1.87702 11980 ft 235 kts 156°
2026-04-21 15:22 47.51147 -1.86590 11684 ft 238 kts 157°
2026-04-21 15:22 47.49668 -1.85461 11377 ft 239 kts 157°
2026-04-21 15:23 47.48203 -1.84367 11088 ft 239 kts 158°
2026-04-21 15:23 47.46713 -1.83275 10787 ft 238 kts 158°
2026-04-21 15:23 47.45224 -1.82195 10440 ft 238 kts 157°
2026-04-21 15:23 47.43738 -1.81123 10100 ft 237 kts 157°
2026-04-21 15:24 47.42299 -1.80075 10025 ft 225 kts 154°
2026-04-21 15:24 47.41205 -1.78512 9987 ft 221 kts 122°
2026-04-21 15:24 47.40862 -1.76287 9649 ft 228 kts 85°
2026-04-21 15:24 47.41233 -1.74013 9315 ft 228 kts 72°
2026-04-21 15:25 47.41552 -1.71734 8974 ft 227 kts 92°
2026-04-21 15:25 47.41061 -1.69553 8633 ft 225 kts 126°
2026-04-21 15:25 47.39854 -1.68170 8304 ft 222 kts 159°
2026-04-21 15:25 47.38372 -1.68050 8217 ft 210 kts 190°
2026-04-21 15:26 47.36982 -1.68449 8152 ft 203 kts 191°
2026-04-21 15:26 47.35599 -1.68803 8075 ft 200 kts 189°
2026-04-21 15:26 47.34232 -1.69122 7990 ft 198 kts 188°
2026-04-21 15:26 47.33313 -1.69327 7932 ft 197 kts 188°
2026-04-21 15:27 47.31958 -1.69619 7849 ft 196 kts 188°
2026-04-21 15:27 47.30607 -1.69904 7768 ft 196 kts 187°
2026-04-21 15:27 47.28821 -1.70275 7653 ft 195 kts 187°
2026-04-21 15:27 47.27475 -1.70552 7575 ft 195 kts 187°
2026-04-21 15:28 47.26565 -1.70740 7530 ft 195 kts 187°
2026-04-21 15:28 47.25223 -1.71018 7447 ft 195 kts 187°
2026-04-21 15:28 47.23892 -1.71292 7301 ft 198 kts 186°
2026-04-21 15:28 47.22500 -1.71577 7066 ft 205 kts 186°
2026-04-21 15:29 47.21070 -1.71870 6829 ft 209 kts 185°
2026-04-21 15:29 47.19624 -1.72165 6586 ft 211 kts 186°
2026-04-21 15:29 47.18164 -1.72464 6352 ft 212 kts 184°
2026-04-21 15:29 47.16700 -1.72768 6095 ft 212 kts 185°
2026-04-21 15:30 47.15238 -1.73068 5831 ft 211 kts 185°
2026-04-21 15:30 47.13786 -1.73368 5588 ft 211 kts 185°
2026-04-21 15:30 47.12335 -1.73668 5331 ft 210 kts 181°
2026-04-21 15:30 47.10892 -1.73974 5071 ft 209 kts 181°
2026-04-21 15:31 47.09460 -1.74263 4816 ft 207 kts 183°
2026-04-21 15:31 47.08033 -1.74546 4566 ft 207 kts 181°
2026-04-21 15:31 47.06607 -1.74833 4302 ft 207 kts 180°
2026-04-21 15:31 47.05177 -1.75122 4050 ft 208 kts 180°
2026-04-21 15:32 47.03747 -1.75413 3780 ft 207 kts 180°
2026-04-21 15:32 47.02319 -1.75734 3534 ft 209 kts 187°
2026-04-21 15:32 47.00987 -1.76707 3282 ft 217 kts 206°
2026-04-21 15:32 46.99852 -1.77789 3120 ft 215 kts 208°
2026-04-21 15:33 46.98636 -1.79020 3034 ft 209 kts 209°
2026-04-21 15:33 46.97464 -1.80238 2986 ft 204 kts 209°
2026-04-21 15:33 46.96237 -1.81041 2961 ft 184 kts 175°
2026-04-21 15:33 46.95096 -1.80631 2961 ft 161 kts 139°
2026-04-21 15:34 46.94369 -1.79571 2963 ft 143 kts 115°
2026-04-21 15:34 46.94039 -1.78270 2959 ft 133 kts 91°
2026-04-21 15:34 46.94332 -1.77037 2949 ft 134 kts 53°
2026-04-21 15:34 46.95136 -1.76284 2950 ft 140 kts 34°
2026-04-21 15:35 46.96011 -1.75657 2957 ft 140 kts 34°
2026-04-21 15:35 46.96885 -1.75037 2959 ft 138 kts 33°
2026-04-21 15:35 46.97738 -1.74445 2960 ft 135 kts 33°
2026-04-21 15:35 46.98579 -1.73863 2953 ft 132 kts 33°
2026-04-21 15:36 46.99398 -1.73284 2944 ft 129 kts 34°
2026-04-21 15:36 47.00191 -1.72695 2953 ft 128 kts 36°
2026-04-21 15:36 47.00979 -1.72082 2956 ft 128 kts 37°
2026-04-21 15:36 47.01765 -1.71433 2830 ft 134 kts 38°
2026-04-21 15:37 47.02600 -1.70742 2657 ft 141 kts 37°
2026-04-21 15:37 47.03472 -1.70051 2434 ft 144 kts 34°
2026-04-21 15:37 47.04372 -1.69403 2254 ft 142 kts 33°
2026-04-21 15:37 47.05233 -1.68804 2039 ft 131 kts 33°
2026-04-21 15:38 47.06007 -1.68247 1840 ft 115 kts 37°
2026-04-21 15:38 47.06648 -1.67765 1643 ft 98 kts 40°
2026-04-21 15:38 47.07238 -1.67261 1511 ft 98 kts 41°
2026-04-21 15:38 47.07828 -1.66757 1410 ft 99 kts 39°
2026-04-21 15:39 47.08433 -1.66259 1301 ft 101 kts 37°
2026-04-21 15:39 47.09067 -1.65787 1191 ft 104 kts 35°
2026-04-21 15:39 47.09729 -1.65327 1079 ft 106 kts 36°
2026-04-21 15:39 47.10401 -1.64857 948 ft 108 kts 37°
2026-04-21 15:40 47.11073 -1.64349 799 ft 109 kts 34°
2026-04-21 15:40 47.11733 -1.63849 616 ft 105 kts 36°
2026-04-21 15:40 47.12361 -1.63329 548 ft 104 kts 37°
2026-04-21 15:40 47.12981 -1.62938 460 ft 92 kts 33°
2026-04-21 15:41 47.13490 -1.62457 333 ft 88 kts 35°
2026-04-21 15:41 47.14046 -1.62049 211 ft 86 kts 29°
2026-04-21 15:41 47.14543 -1.61661 88 ft 74 kts 29°
2026-04-21 15:41 47.14824 -1.61428 84 ft 20 kts 60°
2026-04-21 15:42 47.14836 -1.61252 84 ft 18 kts 76°
2026-04-21 15:42 47.14902 -1.61121 84 ft 17 kts 27°
2026-04-21 15:42 47.15030 -1.61026 84 ft 23 kts 26°
2026-04-21 15:42 47.15174 -1.60913 85 ft 25 kts 28°
2026-04-21 15:43 47.15321 -1.60802 86 ft 22 kts 27°
2026-04-21 15:43 47.15463 -1.60692 85 ft 24 kts 28°
2026-04-21 15:43 47.15613 -1.60580 84 ft 25 kts 27°
2026-04-21 15:43 47.15761 -1.60465 84 ft 23 kts 27°
2026-04-21 15:44 47.15885 -1.60372 84 ft 16 kts 27°
2026-04-21 15:44 47.15996 -1.60288 85 ft 19 kts 27°
2026-04-21 15:44 47.16055 -1.60205 84 ft 11 kts 112°
2026-04-21 15:44 47.16018 -1.60095 84 ft 13 kts 91°
2026-04-21 15:45 47.16046 -1.60091 84 ft 6 kts 227°
2026-04-21 15:45 47.16042 -1.60095 86 ft 0 kts 207°